"","ID","Lat","Lon","Year","Miss Tmax","Miss Tmin","Miss Prcp","Avg Temp","Avg Tmax","Avg Tmin","ToT Prcp","Max Tmax","Min Tmax","Max Tmin","Min Tmin","Warm Days","Warm Nights","Cold Days","Cold Nights","Max 1-day P","Max 5-day P","Wet Days"
"1893-12-31","USW00053920",35.2578,-93.0947,1893,0,0,207,60.84,73.19,48.49,50.39,101,39,75,-6,3.56,6.03,10.14,11.78,3.45,5.69,31.1
"1894-12-31","USW00053920",35.2578,-93.0947,1894,15,16,91,62.67,74.76,50.57,50.94,104,21,75,0,4.66,5.75,7.4,8.49,3,4.85,30.63
"1895-12-31","USW00053920",35.2578,-93.0947,1895,36,36,263,60.8,72.05,49.56,31.62,98,22,79,-6,1.1,6.85,15.34,12.6,2.2,3.25,10.58
"1896-12-31","USW00053920",35.2578,-93.0947,1896,81,81,151,65.56,76.72,54.4,38.7,106,30,78,12,9.86,12.33,12.88,4.66,2.9,4.33,19.92
"1897-12-31","USW00053920",35.2578,-93.0947,1897,1,1,117,61.6,73.72,49.48,38.05,104,24,79,8,11.78,10.14,16.44,8.22,2.21,4.33,19.72
"1898-12-31","USW00053920",35.2578,-93.0947,1898,32,32,81,63.22,74.41,52.04,57.87,98,28,78,16,1.1,10.96,9.04,6.85,3.1,4.55,42.11
"1899-12-31","USW00053920",35.2578,-93.0947,1899,12,12,274,61.33,71.74,50.93,38.18,105,10,77,-15,4.93,12.33,15.89,9.86,1.86,3.2,24.98
"1900-12-31","USW00053920",35.2578,-93.0947,1900,6,6,247,62.47,72.61,52.33,51.33,100,26,76,14,2.47,11.23,10.96,5.48,3.25,5.35,29.28
"1901-12-31","USW00053920",35.2578,-93.0947,1901,15,7,145,61.94,74.09,49.78,30.05,106,20,77,8,10.14,11.78,11.78,9.32,3.01,4.78,20.69
"1902-12-31","USW00053920",35.2578,-93.0947,1902,42,44,224,58.77,69.19,48.35,39.89,101,29,79,15,1.64,6.3,18.36,11.78,2.3,3.55,22.97
"1903-12-31","USW00053920",35.2578,-93.0947,1903,10,8,201,58.48,70.29,46.67,37.37,103,28,73,4,3.29,4.38,18.9,15.34,3.45,4.47,21.18
"1904-12-31","USW00053920",35.2578,-93.0947,1904,20,14,210,58.89,70.79,46.99,47.7,98,24,73,8,0.55,1.1,17.26,15.62,4.38,6.32,32
"1905-12-31","USW00053920",35.2578,-93.0947,1905,9,9,23,58.43,69.21,47.65,56.15,104,19,76,-4,1.1,6.58,21.37,18.08,3.23,5.5,34.61
"1906-12-31","USW00053920",35.2578,-93.0947,1906,17,11,31,59.55,70.83,48.26,57.94,98,28,74,7,1.1,3.29,16.71,9.59,2.76,7.44,33.56
"1907-12-31","USW00053920",35.2578,-93.0947,1907,10,42,46,62.26,73.9,50.62,42.84,107,29,76,16,12.05,3.29,13.15,7.12,3.12,4.09,20.6
"1908-12-31","USW00053920",35.2578,-93.0947,1908,9,9,21,61.09,73.22,48.96,52.44,103,30,78,14,4.11,3.56,12.88,10.68,2.85,4.42,34.55
"1909-12-31","USW00053920",35.2578,-93.0947,1909,10,10,0,62.18,75.37,48.99,39.64,110,26,77,9,13.7,9.59,12.05,11.78,3.25,3.88,22.91
"1910-12-31","USW00053920",35.2578,-93.0947,1910,32,30,30,59.55,72.09,47.01,35.35,99,28,75,1,1.37,4.93,11.78,12.88,3.44,4.88,15.41
"1911-12-31","USW00053920",35.2578,-93.0947,1911,0,1,0,62.16,74.07,50.26,45.22,102,21,77,5,6.58,6.58,12.88,8.77,2.44,2.74,21.19
"1912-12-31","USW00053920",35.2578,-93.0947,1912,4,3,18,59.21,71.07,47.36,40.72,100,20,76,-1,4.93,3.56,20.27,15.34,2.12,3.48,19.45
"1913-12-31","USW00053920",35.2578,-93.0947,1913,1,2,0,61.78,73.36,50.21,46.72,106,27,78,13,10.68,4.66,13.42,8.77,3,4.62,19.44
"1914-12-31","USW00053920",35.2578,-93.0947,1914,5,3,0,61.27,71.21,51.33,39.93,104,22,82,2,4.11,12.33,16.99,8.49,4.3,5,17.3
"1915-12-31","USW00053920",35.2578,-93.0947,1915,2,1,24,60.92,72.64,49.19,56.6,101,34,74,17,3.01,4.38,14.79,6.03,5.3,8.7,31.55
"1916-12-31","USW00053920",35.2578,-93.0947,1916,5,1,1,62.16,74.3,50.02,39.15,103,29,79,2,6.3,9.32,14.79,8.22,4.45,4.45,17.25
"1917-12-31","USW00053920",35.2578,-93.0947,1917,7,19,30,60.13,72.79,47.47,37.48,100,21,77,0,3.84,6.03,12.6,11.78,3.05,4,21.33
"1918-12-31","USW00053920",35.2578,-93.0947,1918,13,37,0,61.34,73.83,48.86,33.62,109,13,79,-11,10.41,3.29,13.7,8.77,2.52,2.97,12.74
"1919-12-31","USW00053920",35.2578,-93.0947,1919,0,0,31,62.21,73.26,51.16,34.84,103,27,84,8,5.48,11.78,12.6,8.49,1.97,3.81,14.08
"1920-12-31","USW00053920",35.2578,-93.0947,1920,46,46,30,62.28,72.47,52.09,46.77,100,30,78,14,2.47,8.22,13.15,9.59,4.32,4.89,26.12
"1921-12-31","USW00053920",35.2578,-93.0947,1921,53,46,83,64.27,74.81,53.73,39.08,102,33,81,13,4.93,12.05,7.67,3.56,3.75,5.28,22.37
"1922-12-31","USW00053920",35.2578,-93.0947,1922,31,23,0,64.78,76.75,52.82,38.2,106,32,84,19,9.59,14.79,9.59,5.75,2.7,2.88,14.59
"1923-12-31","USW00053920",35.2578,-93.0947,1923,13,6,0,62.61,73.45,51.77,56.25,102,33,79,12,5.21,12.05,4.66,4.11,2.2,3.83,35.62
"1924-12-31","USW00053920",35.2578,-93.0947,1924,6,3,0,60.59,73.33,47.86,32.36,103,30,78,7,10.41,9.04,18.08,11.78,2.74,4.46,14.65
"1925-12-31","USW00053920",35.2578,-93.0947,1925,2,4,52,64,76.77,51.23,45.29,105,26,78,8,15.89,12.05,9.04,7.4,4,7.66,26.74
"1926-12-31","USW00053920",35.2578,-93.0947,1926,8,8,0,61.51,74.38,48.64,48.01,104,31,74,16,7.67,1.92,10.68,4.93,3,4.48,28.35
"1927-12-31","USW00053920",35.2578,-93.0947,1927,0,10,1,63.92,74.54,53.29,58.92,101,31,77,12,2.19,11.51,12.88,6.03,2.8,6.4,29.46
"1928-12-31","USW00053920",35.2578,-93.0947,1928,3,9,0,62.49,73.13,51.85,45.21,101,21,77,4,2.47,12.33,11.23,6.85,2.5,4.68,26.84
"1929-12-31","USW00053920",35.2578,-93.0947,1929,4,5,1,62.15,73.44,50.86,44.66,107,25,77,2,12.6,9.04,16.99,10.96,4,4.78,21.3
"1930-12-31","USW00053920",35.2578,-93.0947,1930,3,5,26,63.2,75.58,50.81,47.79,110,22,79,-10,16.71,10.14,12.33,8.77,4.8,5.37,28.2
"1931-12-31","USW00053920",35.2578,-93.0947,1931,2,1,0,63.81,75.5,52.13,41.55,104,35,77,17,10.14,10.96,10.68,3.29,2,3.02,21.9
"1932-12-31","USW00053920",35.2578,-93.0947,1932,0,0,0,63.19,75.36,51.02,48.68,101,28,79,4,8.77,14.52,12.6,10.68,3.39,4.31,25.21
"1933-12-31","USW00053920",35.2578,-93.0947,1933,2,0,0,63.66,74.85,52.48,39.45,102,17,81,0,5.21,10.68,9.04,5.21,2.5,4.6,15.79
"1934-12-31","USW00053920",35.2578,-93.0947,1934,1,0,0,64.01,76.68,51.34,38.38,109,33,80,14,18.36,14.25,11.23,7.12,3.04,3.83,21.67
"1935-12-31","USW00053920",35.2578,-93.0947,1935,6,1,0,62.89,74.13,51.66,75.98,105,32,76,9,8.22,9.32,10.14,7.4,6,8.33,58.7
"1936-12-31","USW00053920",35.2578,-93.0947,1936,0,0,0,63.09,75.84,50.35,33.89,113,27,79,3,18.9,14.79,14.25,12.6,2.73,4.04,17.04
"1937-12-31","USW00053920",35.2578,-93.0947,1937,1,5,0,62.15,74.01,50.29,50.93,109,28,79,13,9.04,9.59,15.07,8.49,3.15,4.27,26.91
"1938-12-31","USW00053920",35.2578,-93.0947,1938,2,2,0,64.38,77.96,50.8,48.03,105,30,74,15,14.52,5.75,9.04,9.32,2.89,7.74,29.77
"1939-12-31","USW00053920",35.2578,-93.0947,1939,4,5,0,64.11,77.61,50.62,49.66,107,36,82,18,10.96,7.4,7.12,7.67,6.5,7.53,27.91
"1940-12-31","USW00053920",35.2578,-93.0947,1940,2,32,0,59.86,73.18,46.54,44.58,98,24,79,-1,0.55,4.93,13.7,13.42,4.16,5.59,16.9
"1941-12-31","USW00053920",35.2578,-93.0947,1941,4,4,23,62.82,75.6,50.04,54.33,103,35,73,17,8.22,3.84,10.68,10.41,2.57,4.12,23.79
"1942-12-31","USW00053920",35.2578,-93.0947,1942,23,23,1,61.61,73.83,49.4,52.47,102,22,82,-10,5.48,8.49,12.05,10.68,3.75,4.38,26.91
"1943-12-31","USW00053920",35.2578,-93.0947,1943,2,39,0,61.32,75.89,46.75,37.93,108,30,82,6,13.42,7.4,11.51,13.97,2.6,4.3,20.32
"1944-12-31","USW00053920",35.2578,-93.0947,1944,11,2,40,62.34,74.37,50.31,52.2,102,31,78,-3,6.58,7.67,14.25,7.4,3.84,4.92,29.23
"1945-12-31","USW00053920",35.2578,-93.0947,1945,23,3,23,61.97,73.66,50.27,69.34,100,34,77,9,3.01,8.77,14.25,9.04,3.98,9.04,45.91
"1946-12-31","USW00053920",35.2578,-93.0947,1946,21,18,75,64.44,76.76,52.12,61.07,101,28,76,13,4.66,5.75,4.38,5.75,3.25,5.06,38.03
"1947-12-31","USW00053920",35.2578,-93.0947,1947,14,7,22,61.88,74.7,49.05,36.66,110,27,77,10,13.7,8.49,12.6,14.25,2.4,2.77,21.24
"1948-12-31","USW00053920",35.2578,-93.0947,1948,22,22,23,60.8,72.74,48.85,49.8,97,27,77,8,0.27,6.03,14.52,13.15,3.22,4.41,25.47
"1949-12-31","USW00053920",35.2578,-93.0947,1949,1,0,0,62.53,74.56,50.51,60.79,99,24,79,7,1.64,9.32,8.22,8.22,4.42,8.73,38.61
"1950-12-31","USW00053920",35.2578,-93.0947,1950,6,5,5,61.44,73.01,49.87,58.96,97,30,77,8,0.55,2.19,11.23,11.78,3.36,6.12,33.79
"1951-12-31","USW00053920",35.2578,-93.0947,1951,0,1,0,61.6,73.86,49.34,54.07,103,18,78,-14,6.03,9.04,12.05,11.51,2.58,4.98,34.53
"1952-12-31","USW00053920",35.2578,-93.0947,1952,7,9,0,62.83,76.09,49.57,55.09,105,36,78,19,12.88,11.23,10.41,9.04,3.79,5.42,36.95
"1953-12-31","USW00053920",35.2578,-93.0947,1953,0,0,0,63.43,76.87,49.99,40.75,105,33,77,10,16.16,9.32,7.4,7.12,2.4,4.85,22.52
"1954-12-31","USW00053920",35.2578,-93.0947,1954,0,0,0,64.09,77.7,50.48,40.93,113,28,81,8,22.47,11.23,7.95,10.96,4.02,7.28,23.1
"1955-12-31","USW00053920",35.2578,-93.0947,1955,0,0,1,62.29,74.93,49.64,39.32,101,34,76,10,4.93,8.49,13.7,14.52,2.95,4.43,21.21
"1956-12-31","USW00053920",35.2578,-93.0947,1956,0,0,0,62.74,75.97,49.51,44.75,108,31,79,13,7.67,7.12,12.33,10.14,2.97,4.76,27.27
"1957-12-31","USW00053920",35.2578,-93.0947,1957,1,1,1,62.16,73.23,51.08,71,101,34,76,13,4.38,7.4,9.04,7.12,6,11.37,41.04
"1958-12-31","USW00053920",35.2578,-93.0947,1958,64,63,61,59.25,70.64,47.86,47.26,100,27,77,5,1.37,8.22,17.53,14.25,3.82,6.13,28.39
"1959-12-31","USW00053920",35.2578,-93.0947,1959,1,1,1,61.89,73.95,49.82,54.15,98,27,76,6,1.1,4.66,11.78,12.33,2.96,4.56,32.26
"1960-12-31","USW00053920",35.2578,-93.0947,1960,2,2,0,60.52,72.74,48.3,45.14,101,32,76,13,5.75,4.93,20.82,15.62,2.57,4.84,22.18
"1961-12-31","USW00053920",35.2578,-93.0947,1961,2,2,0,60.9,73.07,48.73,56.26,97,30,76,10,0.27,5.21,12.6,10.14,3.75,5.85,37.22
"1962-12-31","USW00053920",35.2578,-93.0947,1962,1,1,0,62.02,74.23,49.8,49.58,103,16,76,2,7.4,5.48,11.51,9.86,2.6,4.35,27.42
"1963-12-31","USW00053920",35.2578,-93.0947,1963,0,0,1,62.33,76.09,48.56,30.29,105,25,76,2,10.68,5.75,13.15,18.08,3.25,4.42,15.68
"1964-12-31","USW00053920",35.2578,-93.0947,1964,1,1,0,60.93,75.05,46.81,40.89,108,31,74,2,9.86,1.64,9.86,16.99,3.6,4.06,22.26
"1965-12-31","USW00053920",35.2578,-93.0947,1965,0,0,0,60.8,74.81,46.8,43.2,100,33,73,9,2.74,0.55,10.41,15.34,3.46,3.98,25.67
"1966-12-31","USW00053920",35.2578,-93.0947,1966,0,1,0,58.84,73.4,44.27,40.74,105,25,73,-5,6.3,1.1,13.15,19.73,4.04,6.75,23.4
"1967-12-31","USW00053920",35.2578,-93.0947,1967,0,2,0,59.8,74,45.61,51.83,97,30,72,7,1.1,0.27,10.96,16.44,2.43,5,36.42
"1968-12-31","USW00053920",35.2578,-93.0947,1968,6,5,0,59.94,72.28,47.6,57.33,98,25,75,6,0.82,4.11,15.34,15.89,4.05,7.36,32.61
"1969-12-31","USW00053920",35.2578,-93.0947,1969,38,0,0,59.5,70.96,48.04,42.18,98,33,77,10,0.82,7.12,14.79,12.33,4.44,5.09,26.32
"1970-12-31","USW00053920",35.2578,-93.0947,1970,14,0,0,60.45,72.26,48.63,50.47,101,25,77,1,4.93,5.48,14.52,14.79,2.91,6.35,30.07
"1971-12-31","USW00053920",35.2578,-93.0947,1971,184,184,184,56.67,70.37,42.97,16.67,100,28,76,8,1.37,0.27,5.75,8.77,1.5,1.63,8.08
"1972-12-31","USW00053920",35.2578,-93.0947,1972,60,67,60,63.48,75.62,51.34,39.6,103,28,73,18,4.66,1.64,10.41,6.3,3.61,7.42,25.61
"1973-12-31","USW00053920",35.2578,-93.0947,1973,0,16,0,60.25,71.69,48.81,69.24,98,30,74,11,0.82,4.93,13.97,9.86,4,4.77,45.32
"1974-12-31","USW00053920",35.2578,-93.0947,1974,0,1,0,59.89,71.75,48.02,47.71,106,27,73,13,3.01,2.19,13.42,12.88,2.68,4.74,26.51
"1975-12-31","USW00053920",35.2578,-93.0947,1975,1,1,0,59.45,71.54,47.36,53,101,31,74,13,2.47,3.01,16.99,14.25,3.34,5.08,24
"1976-12-31","USW00053920",35.2578,-93.0947,1976,71,73,45,55.58,69.75,41.4,28.95,99,25,73,6,1.64,0.27,12.6,18.08,1.84,2.87,12.5
"1977-12-31","USW00053920",35.2578,-93.0947,1977,14,13,5,61.81,73.79,49.83,45.49,100,20,76,-5,5.48,12.33,14.25,13.7,3.45,5.38,26.47
"1978-12-31","USW00053920",35.2578,-93.0947,1978,3,8,0,60.03,72.53,47.52,39.31,105,27,81,7,10.14,10.96,21.92,19.18,2.2,4.85,15.11
"1979-12-31","USW00053920",35.2578,-93.0947,1979,8,5,11,58.68,70.43,46.93,49.95,98,24,76,6,0.55,7.4,20.55,16.71,3,4.89,29.33
"1980-12-31","USW00053920",35.2578,-93.0947,1980,366,366,366,NA,NA,NA,0,-Inf,Inf,-Inf,Inf,0,0,0,0,-Inf,0,0
"1981-12-31","USW00053920",35.2578,-93.0947,1981,365,365,365,NA,NA,NA,0,-Inf,Inf,-Inf,Inf,0,0,0,0,-Inf,0,0
"1982-12-31","USW00053920",35.2578,-93.0947,1982,365,365,365,NA,NA,NA,0,-Inf,Inf,-Inf,Inf,0,0,0,0,-Inf,0,0
"1983-12-31","USW00053920",35.2578,-93.0947,1983,13,24,12,61.62,73.15,50.1,45.32,104,14,78,-1,11.23,11.23,15.34,9.86,4.55,4.87,29.67
"1984-12-31","USW00053920",35.2578,-93.0947,1984,0,7,0,61.91,73.9,49.91,58.75,101,27,78,5,4.93,5.21,10.41,10.68,2.4,5.94,31.48
"1985-12-31","USW00053920",35.2578,-93.0947,1985,0,9,0,61.74,73.85,49.63,40.7,105,21,74,-5,8.49,4.38,15.34,14.52,2.9,4.16,21.68
"1986-12-31","USW00053920",35.2578,-93.0947,1986,0,1,0,63.05,74.75,51.35,50.17,110,31,78,13,5.75,7.95,10.68,8.49,2.5,4.27,28.99
"1987-12-31","USW00053920",35.2578,-93.0947,1987,0,0,0,62.2,74.36,50.04,55.19,101,36,78,17,5.75,9.32,12.88,7.95,4.09,5.91,27.6
"1988-12-31","USW00053920",35.2578,-93.0947,1988,3,0,0,60.94,73.94,47.95,46.41,100,21,75,1,7.4,7.12,12.05,13.15,3.08,7.01,29.35
"1989-12-31","USW00053920",35.2578,-93.0947,1989,2,0,0,60.16,72.11,48.22,43.62,101,18,74,-3,1.1,5.48,15.07,15.07,3.93,5.1,18.05
"1990-12-31","USW00053920",35.2578,-93.0947,1990,1,1,0,62.85,75.17,50.53,61.01,103,20,74,6,10.96,6.85,6.3,6.85,3.87,7.28,34.23
"1991-12-31","USW00053920",35.2578,-93.0947,1991,0,1,0,62.33,73.54,51.12,54.17,101,31,74,14,4.93,3.56,15.62,10.96,2.8,6.73,31.98
"1992-12-31","USW00053920",35.2578,-93.0947,1992,3,2,0,60.91,72.26,49.56,41.58,94,35,78,12,0,3.56,12.05,6.58,2.25,3.2,18.27
"1993-12-31","USW00053920",35.2578,-93.0947,1993,0,4,0,60.23,71.26,49.19,58.99,102,32,77,14,6.85,9.32,16.71,10.41,3.6,5.98,38.16
"1994-12-31","USW00053920",35.2578,-93.0947,1994,2,1,0,61.33,72.69,49.97,53.93,96,28,75,12,0,3.29,12.6,10.96,5.04,5.44,30.12
"1995-12-31","USW00053920",35.2578,-93.0947,1995,2,1,0,61.44,73.44,49.44,39.78,102,32,77,9,6.3,8.22,13.97,9.86,2.15,3.94,22.32
"1996-12-31","USW00053920",35.2578,-93.0947,1996,4,2,0,60.39,71.88,48.9,53.33,98,23,75,3,0.55,4.93,14.52,13.15,2.45,3.94,33.21
"1997-12-31","USW00053920",35.2578,-93.0947,1997,0,2,0,61.06,72.45,49.66,42.14,102,22,77,8,5.21,7.67,14.25,8.22,2.35,3.37,18.85
"1998-12-31","USW00053920",35.2578,-93.0947,1998,0,1,0,63.91,74.96,52.85,51.17,105,26,78,14,12.88,15.89,12.6,6.3,7.15,8.21,31.53
"1999-12-31","USW00053920",35.2578,-93.0947,1999,5,4,3,61.42,74.34,48.5,39.93,105,25,76,11,6.03,7.95,9.59,11.23,2.39,3.8,25.63
"2000-12-31","USW00053920",35.2578,-93.0947,2000,2,2,0,60.64,72.68,48.59,39.34,109,26,75,7,9.59,5.48,16.44,16.71,2.61,4.14,23.17
"2001-12-31","USW00053920",35.2578,-93.0947,2001,3,3,2,60.68,72.96,48.4,41.79,102,31,76,8,6.85,8.77,13.42,13.97,5.06,7.21,21.92
"2002-12-31","USW00053920",35.2578,-93.0947,2002,1,1,1,60.19,72.13,48.25,40.09,98,30,74,11,2.74,6.85,13.7,16.99,2.45,4.33,20.15
"2003-12-31","USW00053920",35.2578,-93.0947,2003,2,2,2,59.94,71.69,48.2,37.35,100,29,76,10,3.01,6.58,16.71,15.34,2.83,4.31,17.29
"2004-12-31","USW00053920",35.2578,-93.0947,2004,6,6,3,60.49,71.56,49.42,46.65,96,25,74,5,0,1.92,13.7,12.6,3.53,6.65,22.21
"2005-12-31","USW00053920",35.2578,-93.0947,2005,6,6,0,61.29,73.79,48.79,31.85,103,32,77,9,7.12,6.3,13.15,13.42,2.05,3.35,14.77
"2006-12-31","USW00053920",35.2578,-93.0947,2006,2,1,0,61.65,74.44,48.86,49.08,105,27,76,11,6.3,7.95,9.32,11.23,3.3,4.06,32.22
"2007-12-31","USW00053920",35.2578,-93.0947,2007,0,0,0,62.6,74.1,51.1,42.67,107,26,78,12,6.85,12.88,14.79,13.15,2.81,5.65,21.05
"2008-12-31","USW00053920",35.2578,-93.0947,2008,5,5,1,60.67,72.16,49.18,62.85,102,28,80,12,3.56,9.59,15.07,13.15,3.57,4.95,40.33
"2009-12-31","USW00053920",35.2578,-93.0947,2009,0,0,0,60.8,71.88,49.72,52.1,101,30,78,15,4.11,7.95,14.25,11.51,2.38,6.11,31.31
"2010-12-31","USW00053920",35.2578,-93.0947,2010,0,0,1,62.3,74.15,50.44,35.99,106,26,80,7,10.14,22.74,16.99,14.25,2.08,2.78,18.4
"2011-12-31","USW00053920",35.2578,-93.0947,2011,0,0,0,62.91,74.89,50.92,55.63,115,30,83,0,13.97,16.71,13.97,10.41,5.2,7.06,36.37
"2012-12-31","USW00053920",35.2578,-93.0947,2012,1,1,1,64.88,77.6,52.17,33.49,109,35,80,16,16.44,15.07,8.77,7.95,3.72,4.82,16.65
"2013-12-31","USW00053920",35.2578,-93.0947,2013,2,2,1,60.77,72.22,49.32,43.01,104,28,76,18,6.58,10.68,16.71,12.6,5.2,5.85,23.75
"2014-12-31","USW00053920",35.2578,-93.0947,2014,0,0,0,59.58,70.83,48.34,43.22,98,19,75,5,0.82,8.77,17.26,14.79,1.81,3.44,23.6
"2015-12-31","USW00053920",35.2578,-93.0947,2015,1,1,1,62.01,73.03,50.99,62.19,101,30,78,8,4.11,13.15,14.79,11.23,7.23,8.32,45.15
"2016-12-31","USW00053920",35.2578,-93.0947,2016,0,0,0,62.71,73.91,51.51,38.54,99,31,77,10,2.19,15.62,12.05,10.41,3.3,4.47,20.63
"2017-12-31","USW00053920",35.2578,-93.0947,2017,1,1,1,62.69,74.15,51.22,45.52,97,24,75,6,0.82,7.95,9.59,7.67,2.78,4.43,27.68
"2018-12-31","USW00053920",35.2578,-93.0947,2018,0,0,0,61.42,72.27,50.58,57.5,100.9,22.1,77,5.2,6.03,13.15,15.34,12.05,3.11,7.52,34.22
"2019-12-31","USW00053920",35.2578,-93.0947,2019,2,2,0,61.33,72.13,50.52,58.23,98.1,33.1,78.1,16.2,1.37,9.59,15.07,9.59,3.32,4.01,34.74
"2020-12-31","USW00053920",35.2578,-93.0947,2020,0,0,1,61.08,72.03,50.13,57.45,97,32,77,19.2,1.1,8.49,12.33,8.49,3.18,6.27,24.76
"2021-12-31","USW00053920",35.2578,-93.0947,2021,1,1,3,61.96,73.67,50.25,43.28,100,14.2,78.1,-8.9,3.29,11.51,11.23,9.59,3.3,4.33,22.17
